Auckland, New Zealand

3:37 PM NZDT on March 26, 2017 (GMT +1300)
Auckland International

Weather History for NZAA - October, 2012

Change the Weather History Date:

Thursday, October 18, 2012

  Actual Average Record
Temperature  
Mean Temperature 60 °F -  
Max Temperature 62 °F 61 °F 69 °F (2002)
Min Temperature 53 °F 50 °F 46 °F (1999)
Degree Days  
Heating Degree Days 6    
Growing Degree Days 10 (Base 50)    
Moisture  
Dew Point 52 °F    
Average Humidity 78    
Maximum Humidity 94    
Minimum Humidity 63    
Precipitation  
Precipitation 0.00 in - - ()
Sea Level Pressure  
Sea Level Pressure 29.72 in    
Wind  
Wind Speed 17 mph ()    
Max Wind Speed 33 mph    
Max Gust Speed 40 mph    
Visibility 6.0 miles    
Events Rain    
Averages and records for this station are not official NWS values.
T = Trace of Precipitation, MM = Missing Value Source: Averaged Metar Reports

Daily Weather History Graph

Daily Weather History Graph

Search for Another Location

Airport or City:

Trip Planner

Search our weather history database for the weather conditions in past years. The results will help you decide how hot, cold, wet, or windy it might be!

Date:

Astronomy

Oct. 18, 2012 Rise Set
Actual Time 6:32 AM NZDT 7:40 PM NZDT
Civil Twilight 6:05 AM NZDT 8:06 PM NZDT
Nautical Twilight 5:33 AM NZDT 8:38 PM NZDT
Astronomical Twilight 5:00 AM NZDT 9:12 PM NZDT
Moon 8:10 AM NZDT (10/18) 10:51 PM NZDT (10/18)
Length of Visible Light 14h 01m
Length of Day
13h 07m
Waxing Crescent, 9% of the Moon is Illuminated
Oct 18
Waxing Crescent
Oct 22
First Quarter
Oct 30
Full
Nov 7
Last Quarter
Nov 14
New

Hourly Weather History & Observations

Time (NZDT) Temp. Dew Point Humidity Pressure Visibility Wind Dir Wind Speed Gust Speed Precip Events Conditions
12:00 AM 59.0 °F 51.8 °F 77% 29.89 in 6.2 mi WNW 12.7 mph - N/A   Scattered Clouds
1:00 AM 59.0 °F 53.6 °F 82% 29.86 in 6.2 mi NW 8.1 mph - N/A   Mostly Cloudy
2:00 AM 59.0 °F 53.6 °F 82% 29.83 in 6.2 mi WNW 9.2 mph - N/A   Mostly Cloudy
3:00 AM 59.0 °F 53.6 °F 82% 29.80 in 6.2 mi NW 10.4 mph - N/A   Mostly Cloudy
4:00 AM 59.0 °F 53.6 °F 82% 29.77 in 6.2 mi NNW 13.8 mph - N/A   Mostly Cloudy
5:00 AM 59.0 °F 53.6 °F 82% 29.77 in 6.2 mi NW 18.4 mph - N/A   Mostly Cloudy
6:00 AM 59.0 °F 55.4 °F 88% 29.74 in 6.2 mi NW 17.3 mph - N/A Rain Rain Showers
7:00 AM 59.0 °F 55.4 °F 88% 29.71 in 6.2 mi NW 16.1 mph - N/A   Mostly Cloudy
8:00 AM 57.2 °F 55.4 °F 94% 29.71 in 5.0 mi NW 18.4 mph - N/A   Mostly Cloudy
9:00 AM 57.2 °F 55.4 °F 94% 29.65 in 6.2 mi NNW 23.0 mph - N/A   Scattered Clouds
10:00 AM 57.2 °F 55.4 °F 94% 29.62 in 3.1 mi NW 18.4 mph - N/A   Mostly Cloudy
11:00 AM 60.8 °F 55.4 °F 82% 29.68 in 6.2 mi West 21.9 mph - N/A   Mostly Cloudy
12:00 PM 62.6 °F 51.8 °F 68% 29.68 in 6.2 mi West 24.2 mph 35.7 mph N/A   Scattered Clouds
1:00 PM 62.6 °F 51.8 °F 68% 29.68 in 6.2 mi West 28.8 mph - N/A   Mostly Cloudy
2:00 PM 62.6 °F 51.8 °F 68% 29.68 in 6.2 mi West 27.6 mph - N/A   Mostly Cloudy
3:00 PM 62.6 °F 50.0 °F 63% 29.68 in 6.2 mi West 33.4 mph - N/A   Mostly Cloudy
4:00 PM 62.6 °F 51.8 °F 68% 29.68 in 6.2 mi West 27.6 mph 39.1 mph N/A   Mostly Cloudy
5:00 PM 62.6 °F 50.0 °F 63% 29.65 in 6.2 mi West 28.8 mph - N/A   Mostly Cloudy
6:00 PM 60.8 °F 50.0 °F 68% 29.65 in 6.2 mi West 29.9 mph - N/A   Mostly Cloudy
7:00 PM 59.0 °F 51.8 °F 77% 29.68 in 6.2 mi West 28.8 mph 40.3 mph N/A   Mostly Cloudy
8:00 PM 57.2 °F 50.0 °F 77% 29.68 in 6.2 mi West 27.6 mph - N/A   Mostly Cloudy
9:00 PM 57.2 °F 50.0 °F 77% 29.68 in 6.2 mi West 27.6 mph - N/A   Mostly Cloudy
10:00 PM 57.2 °F 46.4 °F 67% 29.71 in 6.2 mi WSW 28.8 mph - N/A   Scattered Clouds
11:00 PM 53.6 °F 48.2 °F 82% 29.74 in 6.2 mi WSW 25.3 mph - N/A   Partly Cloudy